Year,Month,Day,Hour,Minute,Value (Times are PST for temperature in C)
2016,08,19,00,00,17.90
2016,08,19,00,01,17.90
2016,08,19,00,02,17.90
2016,08,19,00,03,17.90
2016,08,19,00,04,17.80
2016,08,19,00,05,17.80
2016,08,19,00,06,17.70
2016,08,19,00,07,17.70
2016,08,19,00,08,17.60
2016,08,19,00,09,17.60
2016,08,19,00,10,17.50
2016,08,19,00,11,17.50
2016,08,19,00,12,17.50
2016,08,19,00,13,17.40
2016,08,19,00,14,17.40
2016,08,19,00,15,17.30
2016,08,19,00,16,17.30
2016,08,19,00,17,17.30
2016,08,19,00,18,17.30
2016,08,19,00,19,17.20
2016,08,19,00,20,17.20
2016,08,19,00,21,17.20
2016,08,19,00,22,17.10
2016,08,19,00,23,17.10
2016,08,19,00,24,17.10
2016,08,19,00,25,17.10
2016,08,19,00,26,17.10
2016,08,19,00,27,17.10
2016,08,19,00,28,17.10
2016,08,19,00,29,17.20
2016,08,19,00,30,17.20
2016,08,19,00,31,17.20
2016,08,19,00,32,17.20
2016,08,19,00,33,17.20
2016,08,19,00,34,17.20
2016,08,19,00,35,17.10
2016,08,19,00,36,17.10
2016,08,19,00,37,17.10
2016,08,19,00,38,17.10
2016,08,19,00,39,17.10
2016,08,19,00,40,17.00
2016,08,19,00,41,17.00
2016,08,19,00,42,16.90
2016,08,19,00,43,16.90
2016,08,19,00,44,16.90
2016,08,19,00,45,16.90
2016,08,19,00,46,16.80
2016,08,19,00,47,16.80
2016,08,19,00,48,16.80
2016,08,19,00,49,16.80
2016,08,19,00,50,16.80
2016,08,19,00,51,16.80
2016,08,19,00,52,16.80
2016,08,19,00,53,16.70
2016,08,19,00,54,16.70
2016,08,19,00,55,16.70
2016,08,19,00,56,16.70
2016,08,19,00,57,16.70
2016,08,19,00,58,16.60
2016,08,19,00,59,16.60
2016,08,19,01,00,16.60
2016,08,19,01,01,16.60
2016,08,19,01,02,16.60
2016,08,19,01,03,16.60
2016,08,19,01,04,16.60
2016,08,19,01,05,16.60
2016,08,19,01,06,16.60
2016,08,19,01,07,16.60
2016,08,19,01,08,16.60
2016,08,19,01,09,16.60
2016,08,19,01,10,16.70
2016,08,19,01,11,16.70
2016,08,19,01,12,16.70
2016,08,19,01,13,16.70
2016,08,19,01,14,16.70
2016,08,19,01,15,16.80
2016,08,19,01,16,16.80
2016,08,19,01,17,16.80
2016,08,19,01,18,16.80
2016,08,19,01,19,16.80
2016,08,19,01,20,16.80
2016,08,19,01,21,16.80
2016,08,19,01,22,16.80
2016,08,19,01,23,16.90
2016,08,19,01,24,16.90
2016,08,19,01,25,16.90
2016,08,19,01,26,17.00
2016,08,19,01,27,17.10
2016,08,19,01,28,17.10
2016,08,19,01,29,17.10
2016,08,19,01,30,17.10
2016,08,19,01,31,17.10
2016,08,19,01,32,17.10
2016,08,19,01,33,17.10
2016,08,19,01,34,17.10
2016,08,19,01,35,17.10
2016,08,19,01,36,17.00
2016,08,19,01,37,17.00
2016,08,19,01,38,17.00
2016,08,19,01,39,17.00
2016,08,19,01,40,17.00
2016,08,19,01,41,17.00
2016,08,19,01,42,17.00
2016,08,19,01,43,17.00
2016,08,19,01,44,17.10
2016,08,19,01,45,17.10
2016,08,19,01,46,17.10
2016,08,19,01,47,17.00
2016,08,19,01,48,17.00
2016,08,19,01,49,16.90
2016,08,19,01,50,16.90
2016,08,19,01,51,16.90
2016,08,19,01,52,16.80
2016,08,19,01,53,16.80
2016,08,19,01,54,16.80
2016,08,19,01,55,16.80
2016,08,19,01,56,16.80
2016,08,19,01,57,16.80
2016,08,19,01,58,16.80
2016,08,19,01,59,16.80
2016,08,19,02,00,16.80
2016,08,19,02,01,16.80
2016,08,19,02,02,16.70
2016,08,19,02,03,16.70
2016,08,19,02,04,16.70
2016,08,19,02,05,16.70
2016,08,19,02,06,16.70
2016,08,19,02,07,16.60
2016,08,19,02,08,16.60
2016,08,19,02,09,16.60
2016,08,19,02,10,16.60
2016,08,19,02,11,16.60
2016,08,19,02,12,16.60
2016,08,19,02,13,16.60
2016,08,19,02,14,16.60
2016,08,19,02,15,16.60
2016,08,19,02,16,16.60
2016,08,19,02,17,16.60
2016,08,19,02,18,16.60
2016,08,19,02,19,16.60
2016,08,19,02,20,16.50
2016,08,19,02,21,16.50
2016,08,19,02,22,16.50
2016,08,19,02,23,16.50
2016,08,19,02,24,16.40
2016,08,19,02,25,16.40
2016,08,19,02,26,16.40
2016,08,19,02,27,16.30
2016,08,19,02,28,16.30
2016,08,19,02,29,16.30
2016,08,19,02,30,16.20
2016,08,19,02,31,16.20
2016,08,19,02,32,16.20
2016,08,19,02,33,16.20
2016,08,19,02,34,16.20
2016,08,19,02,35,16.20
2016,08,19,02,36,16.20
2016,08,19,02,37,16.20
2016,08,19,02,38,16.20
2016,08,19,02,39,16.20
2016,08,19,02,40,16.10
2016,08,19,02,41,16.10
2016,08,19,02,42,16.00
2016,08,19,02,43,16.00
2016,08,19,02,44,15.90
2016,08,19,02,45,15.90
2016,08,19,02,46,15.90
2016,08,19,02,47,15.90
2016,08,19,02,48,15.80
2016,08,19,02,49,15.80
2016,08,19,02,50,15.80
2016,08,19,02,51,15.80
2016,08,19,02,52,15.80
2016,08,19,02,53,15.80
2016,08,19,02,54,15.80
2016,08,19,02,55,15.80
2016,08,19,02,56,15.80
2016,08,19,02,57,15.80
2016,08,19,02,58,15.80
2016,08,19,02,59,15.80
2016,08,19,03,00,15.80
2016,08,19,03,01,15.80
2016,08,19,03,02,15.80
2016,08,19,03,03,15.70
2016,08,19,03,04,15.70
2016,08,19,03,05,15.80
2016,08,19,03,06,15.70
2016,08,19,03,07,15.70
2016,08,19,03,08,15.70
2016,08,19,03,09,15.70
2016,08,19,03,10,15.70
2016,08,19,03,11,15.70
2016,08,19,03,12,15.70
2016,08,19,03,13,15.70
2016,08,19,03,14,15.70
2016,08,19,03,15,15.70
2016,08,19,03,16,15.70
2016,08,19,03,17,15.70
2016,08,19,03,18,15.70
2016,08,19,03,19,15.70
2016,08,19,03,20,15.70
2016,08,19,03,21,15.80
2016,08,19,03,22,15.80
2016,08,19,03,23,15.80
2016,08,19,03,24,15.80
2016,08,19,03,25,15.80
2016,08,19,03,26,15.70
2016,08,19,03,27,15.70
2016,08,19,03,28,15.70
2016,08,19,03,29,15.70
2016,08,19,03,30,15.70
2016,08,19,03,31,15.70
2016,08,19,03,32,15.70
2016,08,19,03,33,15.70
2016,08,19,03,34,15.60
2016,08,19,03,35,15.60
2016,08,19,03,36,15.50
2016,08,19,03,37,15.50
2016,08,19,03,38,15.50
2016,08,19,03,39,15.50
2016,08,19,03,40,15.50
2016,08,19,03,41,15.50
2016,08,19,03,42,15.50
2016,08,19,03,43,15.50
2016,08,19,03,44,15.50
2016,08,19,03,45,15.50
2016,08,19,03,46,15.50
2016,08,19,03,47,15.50
2016,08,19,03,48,15.50
2016,08,19,03,49,15.50
2016,08,19,03,50,15.50
2016,08,19,03,51,15.40
2016,08,19,03,52,15.50
2016,08,19,03,53,15.50
2016,08,19,03,54,15.50
2016,08,19,03,55,15.50
2016,08,19,03,56,15.50
2016,08,19,03,57,15.50
2016,08,19,03,58,15.60
2016,08,19,03,59,15.60
2016,08,19,04,00,15.60
2016,08,19,04,01,15.60
2016,08,19,04,02,15.70
2016,08,19,04,03,15.70
2016,08,19,04,04,15.70
2016,08,19,04,05,15.70
2016,08,19,04,06,15.70
2016,08,19,04,07,15.70
2016,08,19,04,08,15.70
2016,08,19,04,09,15.70
2016,08,19,04,10,15.70
2016,08,19,04,11,15.70
2016,08,19,04,12,15.70
2016,08,19,04,13,15.70
2016,08,19,04,14,15.70
2016,08,19,04,15,15.70
2016,08,19,04,16,15.70
2016,08,19,04,17,15.70
2016,08,19,04,18,15.70
2016,08,19,04,19,15.70
2016,08,19,04,20,15.70
2016,08,19,04,21,15.70
2016,08,19,04,22,15.70
2016,08,19,04,23,15.70
2016,08,19,04,24,15.70
2016,08,19,04,25,15.70
2016,08,19,04,26,15.70
2016,08,19,04,27,15.70
2016,08,19,04,28,15.70
2016,08,19,04,29,15.60
2016,08,19,04,30,15.60
2016,08,19,04,31,15.50
2016,08,19,04,32,15.40
2016,08,19,04,33,15.40
2016,08,19,04,34,15.30
2016,08,19,04,35,15.30
2016,08,19,04,36,15.20
2016,08,19,04,37,15.20
2016,08,19,04,38,15.20
2016,08,19,04,39,15.20
2016,08,19,04,40,15.20
2016,08,19,04,41,15.20
2016,08,19,04,42,15.30
2016,08,19,04,43,15.30
2016,08,19,04,44,15.30
2016,08,19,04,45,15.30
2016,08,19,04,46,15.30
2016,08,19,04,47,15.30
2016,08,19,04,48,15.30
2016,08,19,04,49,15.30
2016,08,19,04,50,15.30
2016,08,19,04,51,15.30
2016,08,19,04,52,15.30
2016,08,19,04,53,15.30
2016,08,19,04,54,15.30
2016,08,19,04,55,15.30
2016,08,19,04,56,15.30
2016,08,19,04,57,15.30
2016,08,19,04,58,15.40
2016,08,19,04,59,15.40
2016,08,19,05,00,15.40
2016,08,19,05,01,15.40
2016,08,19,05,02,15.30
2016,08,19,05,03,15.30
2016,08,19,05,04,15.30
2016,08,19,05,05,15.40
2016,08,19,05,06,15.50
2016,08,19,05,07,15.60
2016,08,19,05,08,15.60
2016,08,19,05,09,15.60
2016,08,19,05,10,15.60
2016,08,19,05,11,15.60
2016,08,19,05,12,15.50
2016,08,19,05,13,15.40
2016,08,19,05,14,15.40
2016,08,19,05,15,15.40
2016,08,19,05,16,15.30
2016,08,19,05,17,15.30
2016,08,19,05,18,15.40
2016,08,19,05,19,15.40
2016,08,19,05,20,15.30
2016,08,19,05,21,15.30
2016,08,19,05,22,15.40
2016,08,19,05,23,15.40
2016,08,19,05,24,15.40
2016,08,19,05,25,15.40
2016,08,19,05,26,15.50
2016,08,19,05,27,15.50
2016,08,19,05,28,15.50
2016,08,19,05,29,15.40
2016,08,19,05,30,15.40
2016,08,19,05,31,15.40
2016,08,19,05,32,15.30
2016,08,19,05,33,15.30
2016,08,19,05,34,15.30
2016,08,19,05,35,15.30
2016,08,19,05,36,15.30
2016,08,19,05,37,15.30
2016,08,19,05,38,15.20
2016,08,19,05,39,15.20
2016,08,19,05,40,15.10
2016,08,19,05,41,15.10
2016,08,19,05,42,15.00
2016,08,19,05,43,15.00
2016,08,19,05,44,15.00
2016,08,19,05,45,15.00
2016,08,19,05,46,15.00
2016,08,19,05,47,15.10
2016,08,19,05,48,15.10
2016,08,19,05,49,15.10
2016,08,19,05,50,15.10
2016,08,19,05,51,15.20
2016,08,19,05,52,15.20
2016,08,19,05,53,15.20
2016,08,19,05,54,15.20
2016,08,19,05,55,15.20
2016,08,19,05,56,15.20
2016,08,19,05,57,15.20
2016,08,19,05,58,15.20
2016,08,19,05,59,15.20
2016,08,19,06,00,15.20
2016,08,19,06,01,15.20
2016,08,19,06,02,15.10
2016,08,19,06,03,15.10
2016,08,19,06,04,15.10
2016,08,19,06,05,15.00
2016,08,19,06,06,14.90
2016,08,19,06,07,14.90
2016,08,19,06,08,14.80
2016,08,19,06,09,14.80
2016,08,19,06,10,14.90
2016,08,19,06,11,14.90
2016,08,19,06,12,15.00
2016,08,19,06,13,15.10
2016,08,19,06,14,15.10
2016,08,19,06,15,15.20
2016,08,19,06,16,15.20
2016,08,19,06,17,15.30
2016,08,19,06,18,15.30
2016,08,19,06,19,15.40
2016,08,19,06,20,15.40
2016,08,19,06,21,15.50
2016,08,19,06,22,15.50
2016,08,19,06,23,15.60
2016,08,19,06,24,15.60
2016,08,19,06,25,15.60
2016,08,19,06,26,15.60
2016,08,19,06,27,15.60
2016,08,19,06,28,15.60
2016,08,19,06,29,15.60
2016,08,19,06,30,15.50
2016,08,19,06,31,15.50
2016,08,19,06,32,15.40
2016,08,19,06,33,15.50
2016,08,19,06,34,15.50
2016,08,19,06,35,15.50
2016,08,19,06,36,15.60
2016,08,19,06,37,15.60
2016,08,19,06,38,15.70
2016,08,19,06,39,15.70
2016,08,19,06,40,15.80
2016,08,19,06,41,15.80
2016,08,19,06,42,15.80
2016,08,19,06,43,15.80
2016,08,19,06,44,15.80
2016,08,19,06,45,15.80
2016,08,19,06,46,15.80
2016,08,19,06,47,15.80
2016,08,19,06,48,15.90
2016,08,19,06,49,15.90
2016,08,19,06,50,16.00
2016,08,19,06,51,16.00
2016,08,19,06,52,16.10
2016,08,19,06,53,16.10
2016,08,19,06,54,16.20
2016,08,19,06,55,16.20
2016,08,19,06,56,16.30
2016,08,19,06,57,16.30
2016,08,19,06,58,16.40
2016,08,19,06,59,16.40
2016,08,19,07,00,16.50
2016,08,19,07,01,16.50
2016,08,19,07,02,16.60
2016,08,19,07,03,16.60
2016,08,19,07,04,16.70
2016,08,19,07,05,16.70
2016,08,19,07,06,16.70
2016,08,19,07,07,16.70
2016,08,19,07,08,16.70
2016,08,19,07,09,16.70
2016,08,19,07,10,16.70
2016,08,19,07,11,16.80
2016,08,19,07,12,16.80
2016,08,19,07,13,16.80
2016,08,19,07,14,16.90
2016,08,19,07,15,16.90
2016,08,19,07,16,16.90
2016,08,19,07,17,16.90
2016,08,19,07,18,16.90
2016,08,19,07,19,16.80
2016,08,19,07,20,16.80
2016,08,19,07,21,16.80
2016,08,19,07,22,16.80
2016,08,19,07,23,16.80
2016,08,19,07,24,16.90
2016,08,19,07,25,16.90
2016,08,19,07,26,17.00
2016,08,19,07,27,17.10
2016,08,19,07,28,17.20
2016,08,19,07,29,17.30
2016,08,19,07,30,17.40
2016,08,19,07,31,17.40
2016,08,19,07,32,17.50
2016,08,19,07,33,17.50
2016,08,19,07,34,17.60
2016,08,19,07,35,17.60
2016,08,19,07,36,17.70
2016,08,19,07,37,17.80
2016,08,19,07,38,17.80
2016,08,19,07,39,17.90
2016,08,19,07,40,18.00
2016,08,19,07,41,18.00
2016,08,19,07,42,18.00
2016,08,19,07,43,18.10
2016,08,19,07,44,18.10
2016,08,19,07,45,18.30
2016,08,19,07,46,18.40
2016,08,19,07,47,18.60
2016,08,19,07,48,18.70
2016,08,19,07,49,18.90
2016,08,19,07,50,19.00
2016,08,19,07,51,19.20
2016,08,19,07,52,19.30
2016,08,19,07,53,19.50
2016,08,19,07,54,19.60
2016,08,19,07,55,19.70
2016,08,19,07,56,19.80
2016,08,19,07,57,20.00
2016,08,19,07,58,20.10
2016,08,19,07,59,20.20
2016,08,19,08,00,20.30
2016,08,19,08,01,20.40
2016,08,19,08,02,20.50
2016,08,19,08,03,20.60
2016,08,19,08,04,20.70
2016,08,19,08,05,20.70
2016,08,19,08,06,20.70
2016,08,19,08,07,20.80
2016,08,19,08,08,20.80
2016,08,19,08,09,20.80
2016,08,19,08,10,20.90
2016,08,19,08,11,21.00
2016,08,19,08,12,21.10
2016,08,19,08,13,21.10
2016,08,19,08,14,21.20
2016,08,19,08,15,21.20
2016,08,19,08,16,21.30
2016,08,19,08,17,21.30
2016,08,19,08,18,21.30
2016,08,19,08,19,21.30
2016,08,19,08,20,21.30
2016,08,19,08,21,21.40
2016,08,19,08,22,21.50
2016,08,19,08,23,21.60
2016,08,19,08,24,21.70
2016,08,19,08,25,21.80
2016,08,19,08,26,21.80
2016,08,19,08,27,21.80
2016,08,19,08,28,21.80
2016,08,19,08,29,21.80
2016,08,19,08,30,21.80
2016,08,19,08,31,21.90
2016,08,19,08,32,22.00
2016,08,19,08,33,22.10
2016,08,19,08,34,22.20
2016,08,19,08,35,22.20
2016,08,19,08,36,22.20
2016,08,19,08,37,22.20
2016,08,19,08,38,22.20
2016,08,19,08,39,22.20
2016,08,19,08,40,22.20
2016,08,19,08,41,22.20
2016,08,19,08,42,22.30
2016,08,19,08,43,22.60
2016,08,19,08,44,22.70
2016,08,19,08,45,22.90
2016,08,19,08,46,23.00
2016,08,19,08,47,23.10
2016,08,19,08,48,23.20
2016,08,19,08,49,23.40
2016,08,19,08,50,23.60
2016,08,19,08,51,23.90
2016,08,19,08,52,24.10
2016,08,19,08,53,24.20
2016,08,19,08,54,24.30
2016,08,19,08,55,24.50
2016,08,19,08,56,24.70
2016,08,19,08,57,24.90
2016,08,19,08,58,25.20
2016,08,19,08,59,25.40
2016,08,19,09,00,25.60
2016,08,19,09,01,25.70
2016,08,19,09,02,25.80
2016,08,19,09,03,25.90
2016,08,19,09,04,25.90
2016,08,19,09,05,26.00
2016,08,19,09,06,26.00
2016,08,19,09,07,26.20
2016,08,19,09,08,26.30
2016,08,19,09,09,26.40
2016,08,19,09,10,26.40
2016,08,19,09,11,26.40
2016,08,19,09,12,26.40
2016,08,19,09,13,26.30
2016,08,19,09,14,26.30
2016,08,19,09,15,26.20
2016,08,19,09,16,26.20
2016,08,19,09,17,26.10
2016,08,19,09,18,26.10
2016,08,19,09,19,26.10
2016,08,19,09,20,26.10
2016,08,19,09,21,26.10
2016,08,19,09,22,26.20
2016,08,19,09,23,26.40
2016,08,19,09,24,26.50
2016,08,19,09,25,26.60
2016,08,19,09,26,26.70
2016,08,19,09,27,26.80
2016,08,19,09,28,26.80
2016,08,19,09,29,26.90
2016,08,19,09,30,27.00
2016,08,19,09,31,27.10
2016,08,19,09,32,27.20
2016,08,19,09,33,27.30
2016,08,19,09,34,27.40
2016,08,19,09,35,27.40
2016,08,19,09,36,27.40
2016,08,19,09,37,27.40
2016,08,19,09,38,27.50
2016,08,19,09,39,27.50
2016,08,19,09,40,27.60
2016,08,19,09,41,27.80
2016,08,19,09,42,27.90
2016,08,19,09,43,28.10
2016,08,19,09,44,28.20
2016,08,19,09,45,28.30
2016,08,19,09,46,28.40
2016,08,19,09,47,28.50
2016,08,19,09,48,28.60
2016,08,19,09,49,28.60
2016,08,19,09,50,28.70
2016,08,19,09,51,28.80
2016,08,19,09,52,28.80
2016,08,19,09,53,28.80
2016,08,19,09,54,28.80
2016,08,19,09,55,28.90
2016,08,19,09,56,28.90
2016,08,19,09,57,28.90
2016,08,19,09,58,28.90
2016,08,19,09,59,28.90
2016,08,19,10,00,28.90
2016,08,19,10,01,28.80
2016,08,19,10,02,28.80
2016,08,19,10,03,28.80
2016,08,19,10,04,28.80
2016,08,19,10,05,28.80
2016,08,19,10,06,28.80
2016,08,19,11,46,30.70
2016,08,19,11,56,31.00
2016,08,19,11,57,31.00
2016,08,19,11,58,30.90
2016,08,19,11,59,30.80
2016,08,19,12,00,30.70
2016,08,19,12,01,30.60
2016,08,19,12,02,30.60
2016,08,19,12,03,30.40
2016,08,19,12,04,30.30
2016,08,19,12,05,30.30
2016,08,19,12,06,30.20
2016,08,19,12,07,30.30
2016,08,19,12,08,30.30
2016,08,19,12,09,30.30
2016,08,19,12,10,30.20
2016,08,19,12,11,30.20
2016,08,19,12,12,30.10
2016,08,19,12,13,30.00
2016,08,19,12,14,30.00
2016,08,19,12,15,30.10
2016,08,19,12,16,30.20
2016,08,19,12,17,30.20
2016,08,19,12,18,30.50
2016,08,19,12,19,30.70
2016,08,19,12,20,30.90
2016,08,19,12,21,31.00
2016,08,19,12,22,31.00
2016,08,19,12,23,31.00
2016,08,19,12,24,31.10
2016,08,19,12,25,31.20
2016,08,19,12,26,31.30
2016,08,19,12,27,31.50
2016,08,19,12,28,31.60
2016,08,19,12,29,31.60
2016,08,19,12,30,31.50
2016,08,19,12,31,31.20
2016,08,19,12,32,31.10
2016,08,19,12,33,30.90
2016,08,19,12,34,30.80
2016,08,19,12,35,30.90
2016,08,19,12,36,31.10
2016,08,19,12,37,31.30
2016,08,19,12,38,31.40
2016,08,19,12,39,31.60
2016,08,19,12,40,31.70
2016,08,19,12,41,31.80
2016,08,19,12,42,31.90
2016,08,19,12,43,32.00
2016,08,19,12,44,32.10
2016,08,19,12,45,32.20
2016,08,19,12,46,32.20
2016,08,19,12,47,32.20
2016,08,19,12,48,32.20
2016,08,19,12,49,32.20
2016,08,19,12,50,32.20
2016,08,19,12,51,32.20
2016,08,19,12,52,32.20
2016,08,19,12,53,32.20
2016,08,19,12,54,32.30
2016,08,19,12,55,32.20
2016,08,19,12,56,32.10
2016,08,19,12,57,32.00
2016,08,19,12,58,32.10
2016,08,19,12,59,32.00
2016,08,19,13,00,32.00
2016,08,19,13,01,31.90
2016,08,19,13,02,32.00
2016,08,19,13,03,31.90
2016,08,19,13,04,31.90
2016,08,19,13,05,31.90
2016,08,19,13,06,31.90
2016,08,19,13,07,32.00
2016,08,19,13,08,32.00
2016,08,19,13,09,31.90
2016,08,19,13,10,32.00
2016,08,19,13,11,32.10
2016,08,19,13,12,32.20
2016,08,19,13,13,32.20
2016,08,19,13,14,32.30
2016,08,19,13,15,32.30
2016,08,19,13,16,32.30
2016,08,19,13,17,32.20
2016,08,19,13,18,32.20
2016,08,19,13,19,32.30
2016,08,19,13,20,32.40
2016,08,19,13,21,32.50
2016,08,19,13,22,32.60
2016,08,19,13,23,32.60
2016,08,19,13,24,32.50
2016,08,19,13,25,32.40
2016,08,19,13,26,32.40
2016,08,19,13,27,32.30
2016,08,19,13,28,32.30
2016,08,19,13,29,32.30
2016,08,19,13,30,32.10
2016,08,19,13,31,32.10
2016,08,19,13,32,32.00
2016,08,19,13,33,32.00
2016,08,19,13,34,32.10
2016,08,19,13,35,32.20
2016,08,19,13,36,32.20
2016,08,19,13,37,32.20
2016,08,19,13,38,32.30
2016,08,19,13,39,32.30
2016,08,19,13,40,32.30
2016,08,19,13,41,32.30
2016,08,19,13,42,32.50
2016,08,19,13,43,32.60
2016,08,19,13,44,32.70
2016,08,19,13,45,32.80
2016,08,19,13,46,32.80
2016,08,19,13,47,32.80
2016,08,19,13,48,32.90
2016,08,19,13,49,32.80
2016,08,19,13,50,32.70
2016,08,19,13,51,32.60
2016,08,19,13,52,32.50
2016,08,19,13,53,32.50
2016,08,19,13,54,32.40
2016,08,19,13,55,32.40
2016,08,19,13,56,32.40
2016,08,19,13,57,32.40
2016,08,19,13,58,32.30
2016,08,19,13,59,32.30
2016,08,19,14,00,32.30
2016,08,19,14,01,32.40
2016,08,19,14,02,32.40
2016,08,19,14,03,32.50
2016,08,19,14,04,32.50
2016,08,19,14,05,32.60
2016,08,19,14,06,32.60
2016,08,19,14,07,32.60
2016,08,19,14,08,32.60
2016,08,19,14,09,32.40
2016,08,19,14,10,32.30
2016,08,19,14,11,32.20
2016,08,19,14,12,32.00
2016,08,19,14,13,31.90
2016,08,19,14,14,31.90
2016,08,19,14,15,31.80
2016,08,19,14,16,31.80
2016,08,19,14,17,31.80
2016,08,19,14,18,31.70
2016,08,19,14,19,31.70
2016,08,19,14,20,31.60
2016,08,19,14,21,31.50
2016,08,19,14,22,31.50
2016,08,19,14,23,31.40
2016,08,19,14,24,31.40
2016,08,19,14,25,31.50
2016,08,19,14,26,31.50
2016,08,19,14,27,31.60
2016,08,19,14,28,31.60
2016,08,19,14,29,31.60
2016,08,19,14,30,31.70
2016,08,19,14,31,31.80
2016,08,19,14,32,31.80
2016,08,19,14,33,31.80
2016,08,19,14,34,31.80
2016,08,19,14,35,31.80
2016,08,19,14,36,31.70
2016,08,19,14,37,31.70
2016,08,19,14,38,31.70
2016,08,19,14,39,31.70
2016,08,19,14,40,31.70
2016,08,19,14,41,31.70
2016,08,19,14,42,31.70
2016,08,19,14,43,31.70
2016,08,19,14,44,31.80
2016,08,19,14,45,31.80
2016,08,19,14,46,31.80
2016,08,19,14,47,31.80
2016,08,19,14,48,31.80
2016,08,19,14,49,31.70
2016,08,19,14,50,31.70
2016,08,19,14,51,31.70
2016,08,19,14,52,31.70
2016,08,19,14,53,31.70
2016,08,19,14,54,31.70
2016,08,19,14,55,31.70
2016,08,19,14,56,31.60
2016,08,19,14,57,31.60
2016,08,19,14,58,31.60
2016,08,19,14,59,31.60
2016,08,19,15,00,31.60
2016,08,19,15,01,31.60
2016,08,19,15,02,31.70
2016,08,19,15,03,31.80
2016,08,19,15,04,31.80
2016,08,19,15,05,31.80
2016,08,19,15,06,31.80
2016,08,19,15,07,31.80
2016,08,19,15,08,31.80
2016,08,19,15,09,31.70
2016,08,19,15,10,31.70
2016,08,19,15,11,31.70
2016,08,19,15,12,31.70
2016,08,19,15,13,31.80
2016,08,19,15,14,31.80
2016,08,19,15,15,31.80
2016,08,19,15,16,31.90
2016,08,19,15,17,32.00
2016,08,19,15,18,32.00
2016,08,19,15,19,32.00
2016,08,19,15,20,32.10
2016,08,19,15,21,32.10
2016,08,19,15,22,32.20
2016,08,19,15,23,32.20
2016,08,19,15,24,32.30
2016,08,19,15,25,32.30
2016,08,19,15,26,32.40
2016,08,19,15,27,32.50
2016,08,19,15,28,32.50
2016,08,19,15,29,32.50
2016,08,19,15,30,32.50
2016,08,19,15,31,32.50
2016,08,19,15,32,32.50
2016,08,19,15,33,32.60
2016,08,19,15,34,32.70
2016,08,19,15,35,32.80
2016,08,19,15,36,32.80
2016,08,19,15,37,32.90
2016,08,19,15,38,33.00
2016,08,19,15,39,33.00
2016,08,19,15,40,32.90
2016,08,19,15,41,32.80
2016,08,19,15,42,32.80
2016,08,19,15,43,32.70
2016,08,19,15,44,32.70
2016,08,19,15,45,32.70
2016,08,19,15,46,32.60
2016,08,19,15,47,32.50
2016,08,19,15,48,32.40
2016,08,19,15,49,32.30
2016,08,19,15,50,32.20
2016,08,19,15,51,32.20
2016,08,19,15,52,32.20
2016,08,19,15,53,32.20
2016,08,19,15,54,32.20
2016,08,19,15,55,32.30
2016,08,19,15,56,32.40
2016,08,19,15,57,32.50
2016,08,19,15,58,32.50
2016,08,19,15,59,32.50
2016,08,19,16,00,32.50
2016,08,19,16,01,32.50
2016,08,19,16,02,32.40
2016,08,19,16,03,32.30
2016,08,19,16,04,32.30
2016,08,19,16,05,32.20
2016,08,19,16,06,32.10
2016,08,19,16,07,32.00
2016,08,19,16,08,32.00
2016,08,19,16,09,32.00
2016,08,19,16,10,32.00
2016,08,19,16,11,31.90
2016,08,19,16,12,31.90
2016,08,19,16,13,31.80
2016,08,19,16,14,31.60
2016,08,19,16,15,31.50
2016,08,19,16,16,31.40
2016,08,19,16,17,31.20
2016,08,19,16,18,31.00
2016,08,19,16,19,30.90
2016,08,19,16,20,30.80
2016,08,19,16,21,30.70
2016,08,19,16,22,30.60
2016,08,19,16,23,30.60
2016,08,19,16,24,30.50
2016,08,19,16,25,30.40
2016,08,19,16,26,30.40
2016,08,19,16,27,30.40
2016,08,19,16,28,30.40
2016,08,19,16,29,30.40
2016,08,19,16,30,30.40
2016,08,19,16,31,30.40
2016,08,19,16,32,30.50
2016,08,19,16,33,30.70
2016,08,19,16,34,30.80
2016,08,19,16,35,31.00
2016,08,19,16,36,31.10
2016,08,19,16,37,31.30
2016,08,19,16,38,31.40
2016,08,19,16,39,31.40
2016,08,19,16,40,31.40
2016,08,19,16,41,31.40
2016,08,19,16,42,31.20
2016,08,19,16,43,31.00
2016,08,19,16,44,30.80
2016,08,19,16,45,30.60
2016,08,19,16,46,30.60
2016,08,19,16,47,30.60
2016,08,19,16,48,30.70
2016,08,19,16,49,30.70
2016,08,19,16,50,30.60
2016,08,19,16,51,30.60
2016,08,19,16,52,30.70
2016,08,19,16,53,30.80
2016,08,19,16,54,30.80
2016,08,19,16,55,30.80
2016,08,19,16,56,30.80
2016,08,19,16,57,30.60
2016,08,19,16,58,30.60
2016,08,19,16,59,30.60
2016,08,19,17,00,30.50
2016,08,19,17,01,30.40
2016,08,19,17,02,30.20
2016,08,19,17,03,30.20
2016,08,19,17,04,30.20
2016,08,19,17,05,30.20
2016,08,19,17,06,30.30
2016,08,19,17,07,30.20
2016,08,19,17,08,30.10
2016,08,19,17,09,30.00
2016,08,19,17,10,29.90
2016,08,19,17,11,29.80
2016,08,19,17,12,29.70
2016,08,19,17,13,29.60
2016,08,19,17,14,29.60
2016,08,19,17,15,29.60
2016,08,19,17,16,29.60
2016,08,19,17,17,29.50
2016,08,19,17,18,29.30
2016,08,19,17,19,29.20
2016,08,19,17,20,29.10
2016,08,19,17,21,29.10
2016,08,19,17,22,28.90
2016,08,19,17,23,28.80
2016,08,19,17,24,28.70
2016,08,19,17,25,28.70
2016,08,19,17,26,28.70
2016,08,19,17,27,28.70
2016,08,19,17,28,28.70
2016,08,19,17,29,28.70
2016,08,19,17,30,28.80
2016,08,19,17,31,28.80
2016,08,19,17,32,28.80
2016,08,19,17,33,28.80
2016,08,19,17,34,28.80
2016,08,19,17,35,28.70
2016,08,19,17,36,28.60
2016,08,19,17,37,28.60
2016,08,19,17,38,28.50
2016,08,19,17,39,28.40
2016,08,19,17,40,28.40
2016,08,19,17,41,28.40
2016,08,19,17,42,28.40
2016,08,19,17,43,28.50
2016,08,19,17,44,28.50
2016,08,19,17,45,28.40
2016,08,19,17,46,28.40
2016,08,19,17,47,28.40
2016,08,19,17,48,28.40
2016,08,19,17,49,28.50
2016,08,19,17,50,28.50
2016,08,19,17,51,28.60
2016,08,19,17,52,28.60
2016,08,19,17,53,28.60
2016,08,19,17,54,28.60
2016,08,19,17,55,28.60
2016,08,19,17,56,28.60
2016,08,19,17,57,28.60
2016,08,19,17,58,28.70
2016,08,19,17,59,28.80
2016,08,19,18,00,29.00
2016,08,19,18,01,29.10
2016,08,19,18,02,29.20
2016,08,19,18,03,29.30
2016,08,19,18,04,29.40
2016,08,19,18,05,29.40
2016,08,19,18,06,29.40
2016,08,19,18,07,29.30
2016,08,19,18,08,29.30
2016,08,19,18,09,29.20
2016,08,19,18,10,29.10
2016,08,19,18,11,29.00
2016,08,19,18,12,29.10
2016,08,19,18,13,29.10
2016,08,19,18,14,29.10
2016,08,19,18,15,29.10
2016,08,19,18,16,29.10
2016,08,19,18,17,29.10
2016,08,19,18,18,29.00
2016,08,19,18,19,29.00
2016,08,19,18,20,29.00
2016,08,19,18,21,28.90
2016,08,19,18,22,28.90
2016,08,19,18,23,28.80
2016,08,19,18,24,28.80
2016,08,19,18,25,28.70
2016,08,19,18,26,28.70
2016,08,19,18,27,28.70
2016,08,19,18,28,28.60
2016,08,19,18,29,28.40
2016,08,19,18,30,28.20
2016,08,19,18,31,28.10
2016,08,19,18,32,28.10
2016,08,19,18,33,28.10
2016,08,19,18,34,28.20
2016,08,19,18,35,28.20
2016,08,19,18,36,28.20
2016,08,19,18,37,28.20
2016,08,19,18,38,28.10
2016,08,19,18,39,28.00
2016,08,19,18,40,27.90
2016,08,19,18,41,27.80
2016,08,19,18,42,27.90
2016,08,19,18,43,27.90
2016,08,19,18,44,28.00
2016,08,19,18,45,28.10
2016,08,19,18,46,28.10
2016,08,19,18,47,28.20
2016,08,19,18,48,28.30
2016,08,19,18,49,28.30
2016,08,19,18,50,28.40
2016,08,19,18,51,28.40
2016,08,19,18,52,28.50
2016,08,19,18,53,28.50
2016,08,19,18,54,28.50
2016,08,19,18,55,28.40
2016,08,19,18,56,28.30
2016,08,19,18,57,28.20
2016,08,19,18,58,28.00
2016,08,19,18,59,27.90
2016,08,19,19,00,27.80
2016,08,19,19,01,27.60
2016,08,19,19,02,27.50
2016,08,19,19,03,27.40
2016,08,19,19,04,27.30
2016,08,19,19,05,27.10
2016,08,19,19,06,27.00
2016,08,19,19,07,26.90